Tiempo cada hora Barmer

Hoy, 6 Marzo, Sábado

Tiempo Temperatura Precipitaciones Viento Presión Humedad
00:00 +27°C° 0 mm 4 mps 739 mmHg 28%
01:00 +26°C° 0 mm 4 mps 739 mmHg 29%
02:00 +26°C° 0 mm 4 mps 739 mmHg 31%
03:00 +25°C° 0 mm 4 mps 739 mmHg 34%
04:00 +23°C° 0 mm 4 mps 739 mmHg 37%
05:00 +24°C° 0 mm 3 mps 738 mmHg 43%
06:00 +25°C° 0 mm 3 mps 739 mmHg 41%
07:00 +25°C° 0 mm 3 mps 740 mmHg 39%
08:00 +26°C° 0 mm 2 mps 740 mmHg 37%
09:00 +30°C° 0 mm 4 mps 740 mmHg 28%
10:00 +35°C° 0 mm 5 mps 741 mmHg 20%
11:00 +39°C° 0 mm 6 mps 741 mmHg 11%
12:00 +40°C° 0 mm 6 mps 740 mmHg 11%
13:00 +41°C° 0 mm 7 mps 739 mmHg 10%
14:00 +43°C° 0 mm 7 mps 738 mmHg 10%
15:00 +41°C° 0 mm 7 mps 737 mmHg 10%
16:00 +41°C° 0 mm 7 mps 737 mmHg 10%
17:00 +41°C° 0 mm 7 mps 736 mmHg 10%
18:00 +38°C° 0 mm 7 mps 737 mmHg 13%
19:00 +34°C° 0 mm 7 mps 737 mmHg 15%
20:00 +32°C° 0 mm 6 mps 737 mmHg 18%
21:00 +30°C° 0 mm 6 mps 737 mmHg 22%
22:00 +29°C° 0 mm 6 mps 738 mmHg 26%
23:00 +27°C° 0 mm 6 mps 738 mmHg 30%

Mañana, 7 Marzo, Domingo

Tiempo Temperatura Precipitaciones Viento Presión Humedad
00:00 +26°C° 0 mm 6 mps 737 mmHg 37%
01:00 +25°C° 0 mm 5 mps 737 mmHg 44%
02:00 +23°C° 0 mm 5 mps 737 mmHg 52%
03:00 +22°C° 0 mm 5 mps 736 mmHg 56%
04:00 +21°C° 0 mm 4 mps 736 mmHg 61%
05:00 +20°C° 0 mm 4 mps 736 mmHg 66%
06:00 +21°C° 0 mm 4 mps 737 mmHg 65%
07:00 +22°C° 0 mm 5 mps 737 mmHg 65%
08:00 +22°C° 0 mm 6 mps 738 mmHg 64%
09:00 +27°C° 0 mm 7 mps 738 mmHg 51%
10:00 +30°C° 0 mm 7 mps 738 mmHg 39%
11:00 +35°C° 0 mm 8 mps 738 mmHg 27%
12:00 +38°C° 0 mm 8 mps 738 mmHg 22%
13:00 +39°C° 0 mm 8 mps 737 mmHg 18%
14:00 +41°C° 0 mm 8 mps 736 mmHg 13%
15:00 +41°C° 0 mm 8 mps 736 mmHg 13%
16:00 +40°C° 0 mm 8 mps 735 mmHg 12%
17:00 +40°C° 0 mm 8 mps 735 mmHg 11%
18:00 +38°C° 0 mm 8 mps 735 mmHg 15%
19:00 +34°C° 0 mm 8 mps 735 mmHg 20%
20:00 +32°C° 0 mm 8 mps 736 mmHg 24%
21:00 +31°C° 0 mm 8 mps 736 mmHg 32%
22:00 +29°C° 0 mm 7 mps 736 mmHg 40%
23:00 +27°C° 0 mm 7 mps 737 mmHg 48%

Pasado mañana, 8 Marzo, Lunes

Tiempo Temperatura Precipitaciones Viento Presión Humedad
00:00 +26°C° 0 mm 6 mps 737 mmHg 52%
01:00 +25°C° 0 mm 5 mps 736 mmHg 57%
02:00 +23°C° 0 mm 5 mps 736 mmHg 61%
03:00 +22°C° 0 mm 4 mps 736 mmHg 64%
04:00 +21°C° 0 mm 4 mps 736 mmHg 66%
05:00 +20°C° 0 mm 3 mps 736 mmHg 69%
06:00 +20°C° 0 mm 3 mps 737 mmHg 66%
07:00 +21°C° 0 mm 4 mps 737 mmHg 64%
08:00 +22°C° 0 mm 4 mps 738 mmHg 61%
09:00 +27°C° 0 mm 5 mps 739 mmHg 46%
10:00 +30°C° 0 mm 6 mps 739 mmHg 32%
11:00 +35°C° 0 mm 6 mps 739 mmHg 18%
12:00 +38°C° 0 mm 7 mps 739 mmHg 14%
13:00 +39°C° 0 mm 7 mps 738 mmHg 10%
14:00 +41°C° 0 mm 8 mps 737 mmHg 6%
15:00 +40°C° 0 mm 7 mps 737 mmHg 6%
16:00 +39°C° 0 mm 7 mps 737 mmHg 5%
17:00 +39°C° 0 mm 7 mps 736 mmHg 5%
18:00 +35°C° 0 mm 6 mps 737 mmHg 6%
19:00 +32°C° 0 mm 4 mps 737 mmHg 8%
20:00 +28°C° 0 mm 3 mps 737 mmHg 9%
21:00 +28°C° 0 mm 4 mps 738 mmHg 12%
22:00 +27°C° 0 mm 4 mps 738 mmHg 15%
23:00 +26°C° 0 mm 5 mps 738 mmHg 17%

9 Marzo, Martes

Tiempo Temperatura Precipitaciones Viento Presión Humedad
00:00 +26°C° 0 mm 5 mps 738 mmHg 23%
01:00 +25°C° 0 mm 5 mps 738 mmHg 28%
02:00 +23°C° 0 mm 5 mps 738 mmHg 34%
03:00 +23°C° 0 mm 5 mps 738 mmHg 37%
04:00 +22°C° 0 mm 5 mps 738 mmHg 40%
05:00 +21°C° 0 mm 4 mps 738 mmHg 44%
06:00 +22°C° 0 mm 4 mps 738 mmHg 42%
07:00 +24°C° 0 mm 3 mps 739 mmHg 40%
08:00 +25°C° 0 mm 2 mps 740 mmHg 38%
09:00 +28°C° 0 mm 2 mps 740 mmHg 30%
10:00 +30°C° 0 mm 2 mps 740 mmHg 23%
11:00 +34°C° 0 mm 2 mps 740 mmHg 15%
12:00 +35°C° 0 mm 3 mps 740 mmHg 13%
13:00 +37°C° 0 mm 3 mps 739 mmHg 11%
14:00 +38°C° 0 mm 4 mps 738 mmHg 9%
15:00 +39°C° 0 mm 5 mps 738 mmHg 9%
16:00 +39°C° 0 mm 5 mps 737 mmHg 9%
17:00 +39°C° 0 mm 6 mps 737 mmHg 9%
18:00 +35°C° 0 mm 6 mps 737 mmHg 13%
19:00 +33°C° 0 mm 6 mps 738 mmHg 17%
20:00 +29°C° 0 mm 6 mps 738 mmHg 21%
21:00 +28°C° 0 mm 6 mps 738 mmHg 25%
22:00 +27°C° 0 mm 6 mps 738 mmHg 28%
23:00 +27°C° 0 mm 5 mps 738 mmHg 32%

10 Marzo, Miércoles

Tiempo Temperatura Precipitaciones Viento Presión Humedad
00:00 +26°C° 0 mm 5 mps 738 mmHg 32%
01:00 +25°C° 0 mm 5 mps 738 mmHg 32%
02:00 +23°C° 0 mm 5 mps 738 mmHg 32%
03:00 +22°C° 0 mm 4 mps 738 mmHg 35%
04:00 +21°C° 0 mm 4 mps 738 mmHg 37%
05:00 +20°C° 0 mm 4 mps 738 mmHg 40%
06:00 +21°C° 0 mm 4 mps 738 mmHg 40%
07:00 +22°C° 0 mm 3 mps 739 mmHg 41%
08:00 +24°C° 0 mm 3 mps 739 mmHg 42%
09:00 +27°C° 0 mm 4 mps 739 mmHg 34%
10:00 +30°C° 0 mm 4 mps 740 mmHg 27%
11:00 +34°C° 0 mm 5 mps 740 mmHg 19%
12:00 +35°C° 0 mm 6 mps 739 mmHg 16%
13:00 +38°C° 0 mm 7 mps 738 mmHg 13%
14:00 +39°C° 0 mm 8 mps 737 mmHg 10%
15:00 +39°C° 0 mm 8 mps 737 mmHg 10%
16:00 +38°C° 0 mm 8 mps 736 mmHg 10%
17:00 +38°C° 0 mm 8 mps 736 mmHg 11%
18:00 +35°C° 0 mm 8 mps 736 mmHg 13%
19:00 +32°C° 0 mm 7 mps 736 mmHg 15%
20:00 +29°C° 0 mm 7 mps 737 mmHg 17%
21:00 +28°C° 0 mm 6 mps 737 mmHg 25%
22:00 +26°C° 0 mm 6 mps 737 mmHg 34%
23:00 +24°C° 0 mm 6 mps 738 mmHg 42%

11 Marzo, Jueves

Tiempo Temperatura Precipitaciones Viento Presión Humedad
00:00 +23°C° 0 mm 5 mps 737 mmHg 47%
01:00 +22°C° 0 mm 5 mps 737 mmHg 52%
02:00 +21°C° 0 mm 5 mps 737 mmHg 57%
03:00 +20°C° 0 mm 4 mps 737 mmHg 62%
04:00 +19°C° 0 mm 4 mps 737 mmHg 67%
05:00 +19°C° 0 mm 3 mps 736 mmHg 72%
06:00 +19°C° 0 mm 4 mps 737 mmHg 70%
07:00 +20°C° 0 mm 4 mps 738 mmHg 69%
08:00 +21°C° 0 mm 4 mps 738 mmHg 68%
09:00 +25°C° 0 mm 5 mps 738 mmHg 55%
10:00 +28°C° 0 mm 6 mps 739 mmHg 43%
11:00 +33°C° 0 mm 7 mps 739 mmHg 30%
12:00 +35°C° 0 mm 7 mps 738 mmHg 26%
13:00 +36°C° 0 mm 7 mps 737 mmHg 21%
14:00 +39°C° 0 mm 6 mps 736 mmHg 16%
15:00 +39°C° 0 mm 6 mps 736 mmHg 16%
16:00 +39°C° 0 mm 6 mps 736 mmHg 15%
17:00 +39°C° 0 mm 7 mps 736 mmHg 15%
18:00 +35°C° 0 mm 7 mps 736 mmHg 20%
19:00 +33°C° 0 mm 7 mps 736 mmHg 24%
20:00 +29°C° 0 mm 7 mps 737 mmHg 29%
21:00 +28°C° 0 mm 7 mps 737 mmHg 36%
22:00 +28°C° 0 mm 6 mps 738 mmHg 42%
23:00 +27°C° 0 mm 6 mps 738 mmHg 48%
Mostrar más

Necesitamos Su Consentimiento

Meteoprog y nuestros Proveedores de Servicios pueden almacenar y acceder a sus datos personales como cookies, identificadores de dispositivo u otras tecnologías similares de su dispositivo y procesar dichos datos para personalizar contenido y anuncios, además de ofrecer funciones de redes sociales y analizar el tráfico.

  • Almacenar y/o acceder a información en su dispositivo

    Se puede almacenar o acceder a cookies, identificadores de dispositivo u otra información de su dispositivo para los fines anteriormente indicados.

  • Anuncios y contenido personalizados, medición de anuncios y contenido, percepciones del público, y desarrollo de productos

    Los anuncios y el contenido pueden personalizarse en base a su perfil. Se pueden añadir más datos para personalizar mejor los anuncios y contenidos. Se puede medir el rendimiento de los anuncios y contenidos. Se puede obtener la percepción sobre el público que ha visto los anuncios y contenidos. Dichos datos pueden usarse para desarrollar o mejorar la experiencia del usuario, sistemas y software.

Al hacer clic en ‘Estoy De Acuerdo’ usted permitirá el uso de las cookies, identificadores de dispositivo, balizas web u otras tecnologías similares indicadas. Su configuración puede cambiarse desde el navegador de su dispositivo.

Para ciertos fines, los intereses legítimos pueden ser considerados por encima del consentimiento. Puede leer más sobre ello en nuestra Política de Privacidad y Cookies.